DW6860 Weather Reports


Display with metric or nautical units.
time (UTC)temp
F
wind
direction
speed
MPH
gust
MPH
rain 1hr
in
rain 24hr
in
rain mn
in
humidity
%
barometer
mb
20260906081928 60 111 2.0 9.0 0.00 0.00 0.00 82 1025.6
20260906081430 60 190 2.0 7.0 0.00 0.00 0.00 83 1025.6
20260906080930 59 207 2.0 7.0 0.00 0.00 0.00 85 1025.7
20260906080429 59 207 2.0 7.0 0.00 0.00 0.00 86 1025.7
20260906075926 58 176 2.0 6.0 0.00 0.00 0.00 88 1025.7
20260906075424 58 146 2.0 8.0 0.00 0.00 0.00 89 1025.8
20260906075244 57 142 2.0 8.0 0.00 0.00 0.00 89 1025.8
20260906074423 57 195 3.0 7.0 0.00 0.00 0.00 90 1025.8
20260906073922 56 205 2.0 7.0 0.00 0.00 0.00 91 1025.9
20260906073422 56 156 1.0 5.0 0.00 0.00 0.00 91 1025.8
20260906072921 55 208 1.0 3.0 0.00 0.00 0.00 91 1025.6
20260906072614 55 134 1.0 4.0 0.00 0.00 0.00 91 1025.8
20260906072530 55 200 1.0 4.0 0.00 0.00 0.00 91 1025.8
20260906071428 54 194 1.0 3.0 0.00 0.00 0.00 91 1025.8
20260906070912 54 178 0.0 3.0 0.00 0.00 0.00 91 1025.8
20260906070408 54 178 0.0 1.0 0.00 0.00 0.00 91 1025.9
20260906065908 54 178 0.0 1.0 0.00 0.00 0.00 91 1025.9
20260906065414 54 178 0.0 2.0 0.00 0.00 0.00 91 1025.9
20260906064907 53 178 1.0 2.0 0.00 0.00 0.00 91 1025.9
20260906064403 53 178 1.0 2.0 0.00 0.00 0.00 91 1025.8
20260906063904 53 178 1.0 2.0 0.00 0.00 0.00 91 1025.8
20260906063353 53 178 1.0 2.0 0.00 0.00 0.00 91 1025.9
20260906062853 53 178 1.0 2.0 0.00 0.00 0.00 91 1025.9
20260906062354 53 178 1.0 2.0 0.00 0.00 0.00 91 1025.7
20260906061847 53 178 1.0 3.0 0.00 0.00 0.00 91 1025.7
20260906061722 53 178 1.0 3.0 0.00 0.00 0.00 91 1025.7
20260906060842 53 178 1.0 4.0 0.00 0.00 0.00 91 1025.8
20260906060655 53 178 1.0 4.0 0.00 0.00 0.00 91 1025.8
20260906055840 52 157 1.0 3.0 0.00 0.00 0.00 91 1025.8
20260906055339 52 157 1.0 3.0 0.00 0.00 0.00 91 1025.8
20260906054836 52 180 1.0 4.0 0.00 0.00 0.00 91 1025.7
20260906054338 52 162 1.0 4.0 0.00 0.00 0.00 91 1025.6
20260906053836 51 165 1.0 4.0 0.00 0.00 0.00 90 1025.7
20260906053335 51 186 0.0 3.0 0.00 0.00 0.00 90 1025.6
20260906053152 51 188 0.0 3.0 0.00 0.00 0.00 90 1025.5
20260906052648 51 186 0.0 1.0 0.00 0.00 0.00 90 1025.5
20260906051833 51 186 0.0 2.0 0.00 0.00 0.00 90 1025.4
20260906051333 51 186 0.0 2.0 0.00 0.00 0.00 90 1025.6
20260906050834 51 196 0.0 2.0 0.00 0.00 0.00 90 1025.5
20260906050659 51 196 1.0 2.0 0.00 0.00 0.00 90 1025.5
20260906045835 51 187 0.0 2.0 0.00 0.00 0.00 90 1025.6
20260906045651 51 197 0.0 2.0 0.00 0.00 0.00 90 1025.5
20260906044830 51 200 0.0 1.0 0.00 0.00 0.00 90 1025.6
20260906044319 51 200 0.0 1.0 0.00 0.00 0.00 90 1025.6
20260906043810 51 200 0.0 2.0 0.00 0.00 0.00 89 1025.5
20260906043315 51 200 0.0 2.0 0.00 0.00 0.00 89 1025.6
20260906042812 51 200 0.0 1.0 0.00 0.00 0.00 89 1025.8
20260906042313 51 200 0.0 1.0 0.00 0.00 0.00 89 1025.8
20260906041810 51 200 0.0 1.0 0.00 0.00 0.00 89 1025.8
20260906041311 51 224 0.0 1.0 0.00 0.00 0.00 89 1025.8
20260906040812 51 224 0.0 2.0 0.00 0.00 0.00 89 1025.9
20260906040310 51 224 0.0 2.0 0.00 0.00 0.00 89 1026.0
20260906035813 51 271 0.0 1.0 0.00 0.00 0.00 89 1025.9
20260906035307 51 290 0.0 1.0 0.00 0.00 0.00 89 1025.9
20260906035137 51 290 0.0 0.0 0.00 0.00 0.00 89 1026.1
20260906034315 51 290 0.0 0.0 0.00 0.00 0.00 89 1026.1
20260906033813 51 290 0.0 0.0 0.00 0.00 0.00 89 1026.1
20260906033310 51 290 0.0 0.0 0.00 0.00 0.00 89 1026.2
20260906032808 51 290 0.0 0.0 0.00 0.00 0.00 89 1026.0
20260906032309 51 290 0.0 0.0 0.00 0.00 0.00 89 1026.0
20260906031812 51 290 0.0 0.0 0.00 0.00 0.00 89 1026.0
20260906031309 51 290 0.0 0.0 0.00 0.00 0.00 89 1026.1
20260906030804 51 290 0.0 0.0 0.00 0.00 0.00 88 1026.0
20260906030308 51 290 0.0 0.0 0.00 0.00 0.00 88 1025.8
20260906025812 51 290 0.0 1.0 0.00 0.00 0.00 88 1025.8
20260906025314 51 290 0.0 1.0 0.00 0.00 0.00 88 1025.8
20260906024815 51 290 0.0 1.0 0.00 0.00 0.00 88 1026.0
20260906024313 52 290 0.0 1.0 0.00 0.00 0.00 88 1026.1
20260906023803 52 290 0.0 0.0 0.00 0.00 0.00 88 1026.1
20260906023258 52 290 0.0 1.0 0.00 0.00 0.00 88 1026.4
20260906022755 52 290 0.0 1.0 0.00 0.00 0.00 88 1026.5
20260906022237 52 290 0.0 0.0 0.00 0.00 0.00 88 1026.5
20260906021736 52 290 0.0 0.0 0.00 0.00 0.00 88 1026.5
20260906021236 52 290 0.0 0.0 0.00 0.00 0.00 88 1026.8
20260906020736 52 290 0.0 1.0 0.00 0.00 0.00 88 1026.6
20260906020236 52 290 0.0 1.0 0.00 0.00 0.00 88 1026.8
20260906015736 52 290 0.0 1.0 0.00 0.00 0.00 88 1026.9
20260906015238 52 290 0.0 0.0 0.00 0.00 0.00 87 1026.6
20260906014735 52 290 0.0 1.0 0.00 0.00 0.00 88 1026.4
20260906014234 52 290 0.0 1.0 0.00 0.00 0.00 88 1026.4
20260906013737 52 290 0.0 2.0 0.00 0.00 0.00 87 1026.3
20260906013236 53 290 0.0 2.0 0.00 0.00 0.00 87 1026.1
20260906012731 53 290 0.0 0.0 0.00 0.00 0.00 87 1026.2
20260906012233 53 290 0.0 0.0 0.00 0.00 0.00 87 1026.1
20260906011737 53 290 0.0 0.0 0.00 0.00 0.00 87 1026.1
20260906011234 53 290 0.0 1.0 0.00 0.00 0.00 87 1026.1
20260906010733 53 290 0.0 1.0 0.00 0.00 0.00 87 1026.2
20260906010452 53 290 0.0 0.0 0.00 0.00 0.00 87 1026.2
20260906010405 53 290 0.0 0.0 0.00 0.00 0.00 87 1026.2
20260906005222 53 290 0.0 0.0 0.00 0.00 0.00 86 1026.2
20260906004717 53 290 0.0 0.0 0.00 0.00 0.00 86 1026.3
20260906004207 53 290 0.0 0.0 0.00 0.00 0.00 86 1026.4
20260906003711 53 290 0.0 0.0 0.00 0.00 0.00 86 1026.3
20260906003152 53 290 0.0 1.0 0.00 0.00 0.00 86 1026.4
20260906002651 53 290 0.0 1.0 0.00 0.00 0.00 86 1026.3
20260906002146 53 290 0.0 0.0 0.00 0.00 0.00 86 1026.1
20260906001639 53 290 0.0 1.0 0.00 0.00 0.00 86 1026.1
20260906001139 53 290 0.0 1.0 0.00 0.00 0.00 86 1026.2
20260906000636 53 290 0.0 1.0 0.00 0.00 0.00 86 1026.2
20260906000136 54 290 0.0 0.0 0.00 0.00 0.00 86 1026.2
20260905235633 54 290 0.0 0.0 0.00 0.00 0.00 86 1026.2
20260905235131 54 290 0.0 0.0 0.00 0.00 0.00 86 1026.2
20260905234941 54 290 0.0 1.0 0.00 0.00 0.00 85 1026.2
20260905234455 54 290 0.0 1.0 0.00 0.00 0.00 85 1026.2
20260905233634 54 290 0.0 0.0 0.00 0.00 0.00 85 1026.1
20260905233132 54 290 0.0 0.0 0.00 0.00 0.00 85 1026.1
20260905232631 54 290 0.0 1.0 0.00 0.00 0.00 85 1026.1
20260905232445 55 290 0.0 1.0 0.00 0.00 0.00 85 1026.1
20260905231635 55 290 0.0 1.0 0.00 0.00 0.00 85 1026.0
20260905231134 55 290 0.0 0.0 0.00 0.00 0.00 85 1025.9
20260905230632 55 290 0.0 0.0 0.00 0.00 0.00 85 1025.9
20260905230134 55 290 0.0 0.0 0.00 0.00 0.00 85 1025.9
20260905225631 55 290 0.0 0.0 0.00 0.00 0.00 84 1025.9
20260905225135 55 290 0.0 0.0 0.00 0.00 0.00 84 1026.1
20260905224634 55 290 0.0 2.0 0.00 0.00 0.00 84 1026.0
20260905224447 55 290 0.0 2.0 0.00 0.00 0.00 84 1026.0
20260905223634 55 332 0.0 0.0 0.00 0.00 0.00 84 1025.9
20260905223132 56 332 0.0 0.0 0.00 0.00 0.00 84 1026.0
20260905222633 55 332 0.0 0.0 0.00 0.00 0.00 83 1025.9
20260905222131 56 332 0.0 1.0 0.00 0.00 0.00 83 1025.9
20260905221634 56 332 0.0 1.0 0.00 0.00 0.00 83 1025.9
20260905221448 56 332 0.0 0.0 0.00 0.00 0.00 83 1025.9
20260905220631 56 332 0.0 1.0 0.00 0.00 0.00 83 1025.9
20260905220131 56 332 0.0 1.0 0.00 0.00 0.00 83 1025.9
20260905215639 56 332 0.0 0.0 0.00 0.00 0.00 82 1025.8
20260905215134 56 332 0.0 0.0 0.00 0.00 0.00 82 1025.7
20260905214631 56 332 0.0 0.0 0.00 0.00 0.00 82 1025.7
20260905214127 56 332 0.0 1.0 0.00 0.00 0.00 82 1025.6
20260905213613 56 332 0.0 1.0 0.00 0.00 0.00 81 1025.6
20260905213115 57 332 0.0 1.0 0.00 0.00 0.00 81 1025.6
20260905212605 57 332 0.0 0.0 0.00 0.00 0.00 81 1025.6
20260905212113 57 332 0.0 1.0 0.00 0.00 0.00 81 1025.6
20260905211614 57 332 0.0 1.0 0.00 0.00 0.00 80 1025.6
20260905211114 57 332 0.0 2.0 0.00 0.00 0.00 80 1025.5
20260905210609 58 332 0.0 2.0 0.00 0.00 0.00 80 1025.6
20260905210437 58 332 0.0 0.0 0.00 0.00 0.00 80 1025.5
20260905205609 58 332 0.0 0.0 0.00 0.00 0.00 80 1025.5
20260905205105 58 332 0.0 1.0 0.00 0.00 0.00 79 1025.4
20260905204619 58 332 0.0 1.0 0.00 0.00 0.00 79 1025.5
20260905204103 59 332 0.0 0.0 0.00 0.00 0.00 79 1025.4
20260905203558 59 332 0.0 0.0 0.00 0.00 0.00 79 1025.5
20260905203040 59 332 0.0 0.0 0.00 0.00 0.00 78 1025.4
20260905202859 59 332 0.0 0.0 0.00 0.00 0.00 78 1025.4
20260905202412 60 332 0.0 0.0 0.00 0.00 0.00 77 1025.4
20260905201534 60 332 0.0 0.0 0.00 0.00 0.00 77 1025.3
20260905201031 60 332 0.0 0.0 0.00 0.00 0.00 77 1025.4
20260905200536 60 332 0.0 0.0 0.00 0.00 0.00 76 1025.4
20260905200206 60 332 0.0 0.0 0.00 0.00 0.00 76 1025.3
20260905195546 60 332 0.0 0.0 0.00 0.00 0.00 76 1025.3
20260905195347 61 332 0.0 0.0 0.00 0.00 0.00 75 1025.3
20260905194530 61 332 0.0 0.0 0.00 0.00 0.00 74 1025.4
20260905194035 61 332 0.0 0.0 0.00 0.00 0.00 73 1025.3
20260905193534 61 332 0.0 0.0 0.00 0.00 0.00 73 1025.3
20260905193034 62 332 0.0 0.0 0.00 0.00 0.00 73 1025.2
20260905192541 62 332 0.0 0.0 0.00 0.00 0.00 72 1025.2
20260905192038 62 332 0.0 0.0 0.00 0.00 0.00 72 1025.3
20260905191530 62 332 0.0 0.0 0.00 0.00 0.00 71 1025.2
20260905191037 62 332 0.0 0.0 0.00 0.00 0.00 71 1025.2
20260905190847 63 332 0.0 1.0 0.00 0.00 0.00 71 1025.0
20260905190034 63 332 0.0 1.0 0.00 0.00 0.00 70 1025.0
20260905185530 63 332 0.0 1.0 0.00 0.00 0.00 70 1025.0
20260905185027 63 332 0.0 0.0 0.00 0.00 0.00 69 1024.9
20260905184521 63 332 0.0 1.0 0.00 0.00 0.00 69 1024.8
20260905184018 64 332 0.0 1.0 0.00 0.00 0.00 68 1024.9
20260905183508 64 332 0.0 1.0 0.00 0.00 0.00 68 1024.9
20260905183014 64 332 0.0 3.0 0.00 0.00 0.00 68 1024.8
20260905182512 64 303 1.0 3.0 0.00 0.00 0.00 68 1024.8
20260905182006 64 355 1.0 3.0 0.00 0.00 0.00 67 1024.9
20260905181503 64 326 1.0 4.0 0.00 0.00 0.00 67 1024.8
20260905181006 64 348 1.0 7.0 0.00 0.00 0.00 67 1024.8
20260905180501 65 15 1.0 7.0 0.00 0.00 0.00 67 1024.7
20260905180414 65 252 2.0 6.0 0.00 0.00 0.00 66 1024.7
20260905180409 65 250 2.0 7.0 0.00 0.00 0.00 66 1024.7
20260905174952 65 18 1.0 7.0 0.00 0.00 0.00 66 1024.5
20260905174452 65 345 2.0 6.0 0.00 0.00 0.00 66 1024.5
20260905173948 65 0 2.0 6.0 0.00 0.00 0.00 65 1024.6
20260905173447 65 299 1.0 3.0 0.00 0.00 0.00 65 1024.7
20260905173027 66 336 2.0 5.0 0.00 0.00 0.00 65 1024.5
20260905172604 66 330 2.0 5.0 0.00 0.00 0.00 64 1024.7
20260905171947 66 268 2.0 8.0 0.00 0.00 0.00 65 1024.7
20260905171447 66 350 2.0 8.0 0.00 0.00 0.00 64 1024.6
20260905171122 66 22 2.0 6.0 0.00 0.00 0.00 64 1024.5
20260905171035 66 267 2.0 6.0 0.00 0.00 0.00 64 1024.5
20260905165937 66 333 3.0 8.0 0.00 0.00 0.00 65 1024.4
20260905165433 66 288 3.0 10.0 0.00 0.00 0.00 64 1024.3
20260905164932 66 249 3.0 10.0 0.00 0.00 0.00 64 1024.2
20260905164431 66 329 2.0 6.0 0.00 0.00 0.00 64 1024.2
20260905164324 66 311 2.0 9.0 0.00 0.00 0.00 64 1024.0
20260905163433 67 348 3.0 10.0 0.00 0.00 0.00 64 1024.0
20260905162933 67 5 3.0 10.0 0.00 0.00 0.00 64 1024.1
20260905162431 67 228 3.0 10.0 0.00 0.00 0.00 63 1024.0
20260905162309 67 298 4.0 10.0 0.00 0.00 0.00 63 1023.9
20260905161431 67 257 3.0 7.0 0.00 0.00 0.00 62 1024.0
20260905160931 67 0 3.0 9.0 0.00 0.00 0.00 63 1023.9
20260905160431 67 318 2.0 9.0 0.00 0.00 0.00 63 1023.9
20260905155931 67 317 2.0 10.0 0.00 0.00 0.00 63 1023.8
20260905155430 67 345 4.0 10.0 0.00 0.00 0.00 62 1023.7
20260905154932 67 341 4.0 13.0 0.00 0.00 0.00 62 1023.7
20260905154430 67 355 4.0 13.0 0.00 0.00 0.00 62 1023.6
20260905153933 67 0 3.0 12.0 0.00 0.00 0.00 62 1023.6
20260905153749 68 301 3.0 11.0 0.00 0.00 0.00 61 1023.6
20260905152935 68 348 3.0 11.0 0.00 0.00 0.00 61 1023.6
20260905152431 67 332 4.0 10.0 0.00 0.00 0.00 61 1023.5
20260905151929 67 323 4.0 12.0 0.00 0.00 0.00 60 1023.5
20260905151430 68 178 4.0 12.0 0.00 0.00 0.00 60 1023.5
20260905150932 68 295 4.0 12.0 0.00 0.00 0.00 61 1023.5
20260905150431 68 314 5.0 12.0 0.00 0.00 0.00 61 1023.5
20260905145931 68 315 4.0 12.0 0.00 0.00 0.00 60 1023.5
20260905145818 68 323 3.0 12.0 0.00 0.00 0.00 62 1023.5
20260905144930 68 322 4.0 11.0 0.00 0.00 0.00 61 1023.5
20260905144427 69 0 4.0 11.0 0.00 0.00 0.00 61 1023.5
20260905143923 69 192 4.0 11.0 0.00 0.00 0.00 61 1023.3
20260905143425 70 340 4.0 11.0 0.00 0.00 0.00 58 1023.3
20260905142923 70 213 5.0 13.0 0.00 0.00 0.00 59 1023.2
20260905142423 70 355 5.0 13.0 0.00 0.00 0.00 58 1023.2
20260905141921 69 349 5.0 12.0 0.00 0.00 0.00 59 1023.2
20260905141642 69 355 6.0 14.0 0.00 0.00 0.00 59 1023.2
20260905141425 69 355 6.0 14.0 0.00 0.00 0.00 59 1023.2
20260905140917 70 14 6.0 14.0 0.00 0.00 0.00 59 1023.2
20260905140416 71 283 5.0 12.0 0.00 0.00 0.00 58 1023.0
20260905135916 71 315 4.0 13.0 0.00 0.00 0.00 58 1023.1
20260905135415 70 209 4.0 13.0 0.00 0.00 0.00 59 1022.9
20260905134914 70 281 4.0 12.0 0.00 0.00 0.00 60 1022.8
20260905134415 70 204 4.0 12.0 0.00 0.00 0.00 60 1022.7
20260905133916 69 283 4.0 11.0 0.00 0.00 0.00 61 1022.6
20260905133415 69 308 3.0 12.0 0.00 0.00 0.00 61 1022.6
20260905132916 68 265 4.0 12.0 0.00 0.00 0.00 60 1022.6
20260905132419 69 41 5.0 12.0 0.00 0.00 0.00 58 1022.6
20260905131914 69 131 5.0 14.0 0.00 0.00 0.00 57 1022.5
20260905131417 70 300 5.0 14.0 0.00 0.00 0.00 57 1022.6
20260905130912 70 290 4.0 13.0 0.00 0.01 0.00 57 1022.6
20260905130414 69 338 5.0 16.0 0.00 0.01 0.00 58 1022.6
20260905125917 69 319 5.0 16.0 0.00 0.01 0.00 57 1022.6
20260905125414 69 277 6.0 15.0 0.00 0.01 0.00 57 1022.5
20260905124910 70 325 5.0 15.0 0.00 0.01 0.00 57 1022.6
20260905124750 71 276 4.0 13.0 0.00 0.02 0.00 57 1022.4
20260905123911 71 351 4.0 13.0 0.00 0.02 0.00 58 1022.3
20260905123413 70 5 5.0 13.0 0.00 0.02 0.00 57 1022.4
20260905122912 70 297 5.0 15.0 0.00 0.04 0.00 57 1022.3
20260905122415 70 339 5.0 15.0 0.00 0.07 0.00 58 1022.2
20260905121911 71 355 4.0 18.0 0.00 0.07 0.00 58 1022.1
20260905121427 70 342 4.0 18.0 0.00 0.07 0.00 60 1022.1
20260905120913 70 318 5.0 16.0 0.00 0.08 0.00 58 1022.2
20260905120411 71 349 6.0 16.0 0.00 0.08 0.00 58 1022.2
20260905115916 71 344 5.0 12.0 0.00 0.08 0.00 60 1022.2
20260905115411 71 173 4.0 15.0 0.00 0.08 0.00 59 1022.0
20260905114912 71 297 4.0 15.0 0.00 0.08 0.00 61 1021.9
20260905114411 70 237 5.0 12.0 0.00 0.08 0.00 63 1021.9
20260905113910 69 0 5.0 15.0 0.00 0.08 0.00 64 1021.9
20260905113408 68 316 5.0 15.0 0.00 0.08 0.00 63 1021.8
20260905112912 68 229 5.0 11.0 0.00 0.08 0.00 61 1021.8
20260905112409 69 315 5.0 13.0 0.00 0.08 0.00 60 1021.9
20260905111909 69 309 5.0 14.0 0.00 0.08 0.00 60 1021.8
20260905111407 70 17 5.0 14.0 0.00 0.08 0.00 59 1021.5
20260905110912 70 234 5.0 14.0 0.00 0.08 0.00 60 1021.5
20260905110755 69 216 5.0 14.0 0.00 0.08 0.00 60 1021.6
20260905105955 69 321 4.0 12.0 0.00 0.08 0.00 62 1021.5
20260905105411 69 167 5.0 12.0 0.00 0.08 0.00 62 1021.6
20260905104912 69 310 5.0 10.0 0.00 0.08 0.00 60 1021.4
20260905104415 69 265 5.0 13.0 0.00 0.08 0.00 61 1021.4
20260905103915 69 277 5.0 13.0 0.00 0.08 0.00 62 1021.3
20260905103408 68 333 4.0 10.0 0.00 0.08 0.00 64 1021.5
20260905102910 67 232 4.0 10.0 0.00 0.08 0.00 66 1021.4
20260905102409 68 313 4.0 11.0 0.00 0.08 0.00 67 1021.3
20260905101911 68 244 4.0 11.0 0.00 0.08 0.00 68 1021.3
20260905101408 67 259 4.0 11.0 0.00 0.08 0.00 69 1021.2
20260905100904 67 194 4.0 9.0 0.00 0.08 0.00 69 1021.2
20260905100401 67 219 4.0 12.0 0.00 0.08 0.00 69 1021.1
20260905095901 67 285 4.0 12.0 0.00 0.08 0.00 70 1021.0
20260905095401 66 214 4.0 10.0 0.00 0.08 0.00 71 1021.0
20260905094905 66 302 4.0 14.0 0.00 0.08 0.00 70 1021.0
20260905094359 66 31 4.0 14.0 0.00 0.08 0.00 70 1021.0
20260905093857 66 96 5.0 12.0 0.00 0.08 0.00 70 1020.7
20260905093358 67 319 5.0 12.0 0.00 0.08 0.00 71 1020.8
20260905092856 67 5 4.0 16.0 0.00 0.08 0.00 73 1020.8
20260905092359 66 231 4.0 16.0 0.00 0.08 0.00 76 1020.6
20260905091855 65 175 4.0 14.0 0.00 0.08 0.00 76 1020.7
20260905091357 65 260 5.0 14.0 0.00 0.08 0.00 76 1020.5
20260905090858 65 355 4.0 12.0 0.00 0.08 0.00 77 1020.5
20260905090353 65 230 3.0 10.0 0.00 0.08 0.00 78 1020.5
20260905090228 65 227 5.0 14.0 0.00 0.08 0.00 78 1020.5
20260905085358 64 265 5.0 14.0 0.00 0.08 0.00 79 1020.4
20260905084853 64 198 4.0 12.0 0.00 0.08 0.00 80 1020.3
20260905084352 64 238 4.0 12.0 0.00 0.08 0.00 81 1020.3
20260905083852 64 230 4.0 12.0 0.00 0.08 0.00 82 1020.3
20260905083728 64 194 3.0 10.0 0.00 0.08 0.00 82 1020.2
20260905083222 63 153 4.0 9.0 0.00 0.08 0.00 82 1020.0
20260905082736 63 157 5.0 14.0 0.00 0.08 0.00 83 1019.9